Location: Wawayanda State Park
(41.1833°N, 74.4333°W)
Time: 17:06:19
(UTC-05:00)

Daily predictions for brighter satellites

Satellite Brightness Start Highest point End
(mag) Time Altitude Azimuth Time Altitude Azimuth Time Altitude Azimuth
Cosmos 2297 Rocket 2.8 17:52:46 10° S 17:57:52 36° ESE 18:02:59 10° NE
Cosmos 1624 Rocket 4.1 17:54:16 10° NNW 17:59:26 56° ENE 18:04:31 10° SE
Cosmos 2285 Rocket 4.1 17:53:25 10° S 17:59:37 60° ESE 18:05:52 10° NNE
Cosmos 1680 Rocket 4.3 17:54:29 10° SSW 17:59:43 59° WNW 18:05:00 10° NNE
COSMO-SKYMED 1 2.6 18:02:44 10° NNE 18:07:06 83° ESE 18:11:27 10° S
Lacrosse 5 1.9 18:04:03 10° NW 18:09:07 67° NE 18:14:08 10° SE
USA 238 DEB 4.2 18:03:05 10° SW 18:09:55 65° NW 18:16:52 10° NNE
USA 238 4.2 18:03:11 10° SW 18:10:01 66° NW 18:16:58 10° NNE
MONITOR-E 4.0 18:10:53 10° SSE 18:13:54 82° ENE 18:16:56 10° N
ALOS 2.3 18:09:43 10° SSE 18:14:23 88° WSW 18:19:05 10° NNW
Cosmos 1725 Rocket 4.4 18:10:37 10° NNW 18:16:55 72° W 18:23:09 10° S
Cosmos 2333 Rocket 2.5 18:11:56 10° NNW 18:17:37 75° WSW 18:23:14 10° SSE
Cosmos 1812 3.5 18:14:32 10° NNE 18:17:57 29° ENE 18:21:22 10° SE
Cosmos 44 4.2 18:18:14 10° NNW 18:22:40 31° NE 18:27:16 10° ESE
COSMOS 2428 4.4 18:18:25 10° NW 18:23:40 38° WSW 18:28:52 10° S
Cosmos 2082 3.8 18:18:52 10° S 18:24:18 54° ESE 18:29:48 10° NNE
ERS-2 2.6 18:23:21 10° SE 18:26:46 37° ENE 18:30:13 10° N
Abrixas rocket 4.4 18:26:53 10° W 18:29:30 24° SW 18:32:08 10° SSE
Envisat 3.9 18:29:49 10° ESE 18:34:01 27° ENE 18:38:14 10° N
Cosmos 1674 Rocket 3.6 18:30:20 10° N 18:34:36 51° E 18:38:48 10° SSE
SL-8 R/B 4.1 18:32:46 10° SW 18:37:20 47° SE 18:40:35 18° ENE
Cosmos 1633 3.1 18:34:58 10° SSE 18:38:11 34° E 18:41:27 10° NNE
USA 215 3.4 18:32:02 10° NE 18:38:30 60° SE 18:44:55 10° SSW
Cosmos 1908 Rocket 4.1 18:36:51 10° SSE 18:40:57 37° E 18:45:04 10° NNE
SeaSat 1 2.9 18:38:46 10° SE 18:43:23 41° ENE 18:48:00 10° NNW
EO 1 Del DPAF 3.4 18:39:36 10° N 18:43:27 76° WNW 18:47:15 10° SSW
Cosmos 1980 4.0 18:37:51 10° NNW 18:43:33 73° WSW 18:49:11 10° SSE
NOSS 3-2 (C) 3.5 18:40:37 10° SW 18:46:31 82° NW 18:53:07 10° NNE
Aureole 3 4.1 18:41:26 10° S 18:47:45 74° E 18:52:43 10° NNE
HJ-1C 3.6 18:46:06 10° SSE 18:49:24 46° ENE 18:52:42 10° N
Cosmos 1733 Rocket 3.3 18:45:17 10° SSW 18:49:35 71° W 18:53:54 10° N
FengYun 1-2 T 4.1 18:45:22 10° SSE 18:50:53 82° ENE 18:56:24 10° NNW
Resurs 01 Rocket 2.7 18:55:49 24° ENE 18:55:49 24° ENE 18:59:16 10° NNE
Cosmos 921 Rocket 3.9 18:52:16 10° N 18:56:13 28° ENE 18:56:51 27° E
Okean 3 3.3 18:55:13 10° N 18:59:25 80° E 19:03:35 10° S
Shenzhou-11 Module 4.2 19:01:49 10° W 19:04:10 21° SSW 19:05:43 15° S
Cosmos 1975 Rocket 3.6 19:04:01 10° N 19:07:57 35° ENE 19:07:57 35° ENE
SJ-6B 2.5 19:05:48 10° SSE 19:09:31 76° ENE 19:13:21 10° N
Tsikada Rocket 4.3 19:03:36 10° SSE 19:09:36 44° E 19:15:37 10° NNE
USA 186 4.2 19:13:20 13° N 19:13:20 13° N 19:13:47 10° N
USA 267 3.9 19:08:44 26° ENE 19:11:41 39° NNE 19:17:38 10° NW
Cosmos 1452 Rocket 3.6 19:13:09 10° NNW 19:18:26 78° WSW 19:23:39 10° SSE
CENTAUR R/B 2.4 19:13:03 10° SSW 19:18:57 74° ESE 19:24:34 15° NE
Okean 1 3.1 19:19:07 10° N 19:23:07 73° E 19:23:56 53° SSE
Spot 2 Rocket 3.9 19:24:28 40° ENE 19:24:28 40° ENE 19:28:53 10° N
Cosmos 44 Rocket 3.3 19:19:15 10° NNW 19:24:18 73° ENE 19:26:00 42° SE
Tiangong 2 1.7 19:22:33 10° W 19:25:22 51° SW 19:25:22 51° SW
Cosmos 1048 Rocket 3.9 19:21:01 10° S 19:26:20 73° ESE 19:31:17 12° NNE
Cosmos 2227 Rocket 3.6 19:22:19 10° SW 19:27:31 37° WNW 19:32:45 10° N
Geosat 3.9 19:25:09 28° NE 19:27:46 66° ESE 19:32:45 10° SSW
Cosmos 2237 Rocket 3.9 19:23:19 10° NW 19:28:16 33° WSW 19:33:12 10° SSW
Cosmos 1464 Rocket 4.1 19:23:28 10° NNW 19:29:35 72° W 19:35:40 10° S
Sich 1 Rocket 3.6 19:25:48 10° S 19:30:20 82° W 19:34:50 10° N
SL-16 R/B 2.2 19:25:16 10° NNW 19:30:57 79° WSW 19:35:31 16° SSE
Cosmos 1378 Rocket 4.1 19:30:04 10° NNW 19:34:24 57° W 19:38:43 10° S
Cosmos 1782 Rocket 3.5 19:33:51 10° S 19:38:18 89° WNW 19:42:45 10° N
Iridium 4 Rocket 4.0 19:33:46 10° N 19:38:38 54° W 19:43:04 10° SSW
Cosmos 158 Rocket 4.5 19:35:06 10° SW 19:39:53 55° WNW 19:44:41 10° N
Cosmos 1420 Rocket 4.5 19:35:49 10° NNW 19:41:01 61° WSW 19:45:53 12° S
Cosmos 2297 Rocket 3.8 19:36:49 10° WSW 19:41:53 33° WNW 19:47:00 10° N
CZ-2D R/B 4.3 19:43:09 16° SSW 19:45:59 45° W 19:49:46 10° NNW
Cosmos 1603 4.1 19:43:36 10° NNW 19:48:14 46° NNE 19:48:14 46° NNE
Lacrosse 5 4.2 19:47:58 10° WNW 19:51:37 20° WSW 19:55:15 10° SSW
Meteor 1-19 Rocket 4.2 19:59:06 10° NNW 20:04:38 79° W 20:05:04 73° SSW
BREEZE-M DEB (TANK) 4.3 20:04:03 10° SW 20:21:35 - NE 20:05:46 36° SW
Envisat 4.4 20:08:13 10° SSW 20:12:52 36° W 20:17:33 10° NNW
Meteor 2-4 Rocket 4.2 20:10:17 10° N 20:14:43 53° N 20:14:43 53° N
CZ-4C R/B 3.6 20:11:35 10° NNW 20:16:56 36° NNE 20:16:56 36° NNE
Cosmos 1634 Rocket 4.4 20:12:47 10° N 20:17:18 51° N 20:17:18 51° N
SeaSat 1 4.3 20:18:12 16° SSW 20:20:58 26° WSW 20:25:06 10° NW
USA 215 4.0 20:18:48 32° NNE 20:21:22 46° NNW 20:27:31 10° W
Resurs 01 Rocket 3.6 20:33:23 26° WNW 20:33:23 26° WNW 20:35:59 10° NNW
USA 267 3.8 20:56:05 52° WNW 20:56:05 52° WNW 21:00:56 10° NW
CENTAUR R/B 4.3 21:05:07 10° W 21:10:23 27° NW 21:11:51 25° NNW
